Flag Weather past 2 weeks in Evansville, Indiana, U.S.A.

Now
26 °F

Clear.


Feels Like: 26 °F
Forecast: 17 / 42 °F
Wind: No wind

Location: Evansville Regional Airport

Current Time: Nov 28, 2014 at 5:30:32 AM

Latest Report: Nov 28, 2014 at 4:54 AM


Visibility: 10 mi

Pressure: 30.43 "Hg

Humidity: 81%

Dew point: 21 °F

Location of EvansvilleLocation

Historic Weather in Evansville — Graph

°F

Evansville temperature yesterday

Maximum temperature yesterday: 33 °F (at 12:54 AM)
Minimum temperature yesterday: 22 °F (at 11:54 PM)
Average temperature yesterday: 29 °F

Past Weeks' High & Low Weather Summary

 TemperatureHumidityPressure
High64 °F (Nov 22, 1:54 PM)93% (Nov 23, 1:54 PM)30.52 "Hg (Nov 23, 1:54 PM)
Low9 °F (Nov 18, 5:54 AM)38% (Nov 21, 1:54 PM)29.26 "Hg (Nov 24, 3:54 AM)
Average34 °F68%30.17 "Hg
* Reported Nov 13 3:54 AM — Nov 28 3:54 AM, Evansville, Weather by CustomWeather, © 2014

Note: Actual official high and low records may vary slightly from our data, if they occured in-between our weather recording intervals... More about our weather records

Advertising

Evansville weather history for previous 24 hours

 ConditionsComfort  
Time TempWeatherWind HumidityBarometerVisibility
3:54 AM
Nov 28
26 °FClear.No wind81%30.45 "Hg10 mi
2:54 AM26 °FClear.No wind77%30.47 "Hg10 mi
1:54 AM25 °FClear.3 mph81%30.47 "Hg8 mi
12:54 AM24 °FClear.No wind84%30.47 "Hg8 mi
11:54 PM
Nov 27
22 °FClear.No wind85%30.47 "Hg7 mi
10:54 PM23 °FClear.3 mph85%30.48 "Hg8 mi
9:54 PM24 °FClear.No wind81%30.49 "Hg9 mi
8:54 PM27 °FClear.No wind75%30.50 "Hg10 mi
7:54 PM28 °FClear.No wind75%30.50 "Hg10 mi
6:54 PM29 °FPartly cloudy.No wind72%30.49 "Hg10 mi
5:54 PM30 °FPassing clouds.3 mph69%30.48 "Hg10 mi
4:54 PM30 °FOvercast.3 mph72%30.48 "Hg10 mi
3:54 PM30 °FOvercast.8 mph69%30.47 "Hg10 mi
2:54 PM31 °FOvercast.8 mph69%30.46 "Hg9 mi
1:54 PM31 °FMostly cloudy.8 mph73%30.46 "Hg8 mi
12:54 PM31 °FOvercast.9 mph69%30.45 "Hg10 mi
11:54 AM31 °FPartly sunny.9 mph69%30.45 "Hg8 mi
10:54 AM30 °FPartly sunny.14 mph75%30.47 "Hg7 mi
9:54 AM30 °FScattered clouds.9 mph72%30.47 "Hg8 mi
9:02 AM29 °FOvercast.12 mph75%30.43 "Hg6 mi
8:54 AM29 °FOvercast.7 mph75%30.44 "Hg6 mi
7:54 AM28 °FOvercast.7 mph75%30.40 "Hg8 mi
6:54 AM30 °FOvercast.12 mph75%30.37 "Hg9 mi
5:54 AM30 °FOvercast.13 mph82%30.33 "Hg9 mi
Weather by CustomWeather, © 2014

See weather overviewHow to use our weather pages